User: anonymous   Login
Location: Harbor Side
(32.6101°N, 117.0814°W)
Time: 15:41:48
(UTC+00:00)
Language:

LEMUR 2 EJATTA - Orbit

View from above orbital plane
View from above orbital plane
View from above satellite
View from above satellite

Ground track
Ground track

The orbit data is extracted from the following two-line orbital elements,

1 44409U 19038Z   21332.11995310  .00003687  00000-0  19709-3 0  9995
2 44409  97.5985 295.9710 0024901  99.7288 260.6759 15.15457052132587
Epoch (UTC): 28 November 2021 02:52:43
Eccentricity: 0.0024901
inclination: 97.5985°
perigee height: 502 km
apogee height: 537 km
right ascension of ascending node: 295.9710°
argument of perigee: 99.7288°
revolutions per day: 15.15457052
mean anomaly at epoch: 260.6759°
orbit number at epoch: 13258

The dashed part of the orbit path shows where the satellite is in the earth's shadow,  

DLR